User: anonymous
Location: Vancouver
(49.2500°N, 123.1330°W)
Time: 02:17:13
(UTC-07:00)
Language:

AO-27 - Orbit

View from above orbital plane
View from above orbital plane
View from above satellite
View from above satellite

Ground track
Ground track

The orbit data is extracted from the following two-line orbital elements,

1 22825U 93061C   14111.84533148  .00000225  00000-0  10490-3 0  6478
2 22825 098.6576 058.2408 0009652 103.1366 272.6120 14.29703968 72739
Epoch (UTC): 21 April 2014 20:17:16
Eccentricity: 0.0009652
inclination: 98.6576°
perigee height: 786 km
apogee height: 799 km
right ascension of ascending node: 58.2408°
argument of perigee: 103.1366°
revolutions per day: 14.29703968
mean anomaly at epoch: 272.6120°
orbit number at epoch: 7273

The dashed part of the orbit path shows where the satellite is in the earth's shadow,  

DLR